Location: Unspecified
(33.6682°S, 0.0000°E)
Time: 07:35:44
(UTC+00:00)

Vanguard 2 Rocket - Pass Details

Date: 19 June 2019
Orbit: 554 x 3326 km, 32.9° (Epoch: 18 July)

Event Time Altitude Azimuth Distance (km) Brightness Sun altitude
Rises 05:17:46 0° 353° (N) 7,251 11.6 -21.4°
Reaches altitude 10° 05:28:35 10° 20° (NNE) 5,849 11.5 -19.2°
Maximum altitude 05:33:17 12° 35° (NE) 5,438 11.6 -18.3°
Drops below altitude 10° 05:37:33 10° 51° (NE) 5,257 11.8 -17.4°
Sets 05:45:18 0° 80° (E) 5,561 12.7 -15.9°
